TimeCET,TemperatureF,Dew PointF,Humidity,Sea Level PressureIn,VisibilityMPH,Wind Direction,Wind SpeedMPH,Gust SpeedMPH,PrecipitationIn,Events,Conditions,WindDirDegrees,DateUTC
12:25 AM,35.6,35.6,100,29.53,6.2,NNW,5.8,-,N/A,Rain,Light Rain Showers,340,2013-03-09 23:25:00
12:55 AM,35.6,33.8,93,29.53,4.3,North,5.8,-,N/A,Rain,Light Rain,350,2013-03-09 23:55:00
1:00 AM,34,33,97,29.55,3,NNW,6.7,,,Rain,Rain,340,2013-03-10 00:00:00
1:25 AM,33.8,32.0,93,29.53,1.8,North,4.6,-,N/A,Rain,Rain,350,2013-03-10 00:25:00
1:55 AM,33.8,32.0,93,29.53,1.4,NNW,4.6,-,N/A,Rain-Snow,Light Snow,340,2013-03-10 00:55:00
2:25 AM,32.0,32.0,100,29.56,1.5,NNW,5.8,-,N/A,Snow,Light Snow,340,2013-03-10 01:25:00
2:55 AM,32.0,32.0,100,29.56,1.6,NNW,5.8,-,N/A,Snow,Light Snow,340,2013-03-10 01:55:00
3:25 AM,33.8,32.0,93,29.53,-9999.0,North,5.8,-,N/A,Snow,Light Snow,350,2013-03-10 02:25:00
3:55 AM,33.8,32.0,93,29.53,-9999.0,North,6.9,-,N/A,Snow,Light Snow,360,2013-03-10 02:55:00
4:00 AM,33,32,96,29.56,2,North,6.7,,,Snow,Light Snow Showers,0,2013-03-10 03:00:00
4:25 AM,33.8,32.0,93,29.53,1.6,North,6.9,-,N/A,Snow,Light Snow,350,2013-03-10 03:25:00
4:55 AM,33.8,32.0,93,29.53,1.8,North,8.1,-,N/A,Snow,Light Snow,360,2013-03-10 03:55:00
5:25 AM,33.8,32.0,93,29.56,3.1,North,10.4,-,N/A,Snow,Light Snow Grains,10,2013-03-10 04:25:00
5:55 AM,33.8,32.0,93,29.56,3.7,North,9.2,-,N/A,,Mostly Cloudy,10,2013-03-10 04:55:00
6:25 AM,33.8,32.0,93,29.56,5.0,North,9.2,-,N/A,,Overcast,360,2013-03-10 05:25:00
6:55 AM,33.8,32.0,93,29.56,5.6,North,9.2,-,N/A,,Overcast,10,2013-03-10 05:55:00
7:25 AM,33.8,32.0,93,29.56,-9999.0,North,9.2,-,N/A,Snow,Light Snow,10,2013-03-10 06:25:00
7:55 AM,33.8,32.0,93,29.56,6.2,NNE,9.2,-,N/A,,Mostly Cloudy,20,2013-03-10 06:55:00
8:25 AM,33.8,30.2,87,29.59,6.2,NNE,11.5,-,N/A,,Overcast,30,2013-03-10 07:25:00
8:55 AM,33.8,30.2,87,29.59,6.2,NNE,10.4,-,N/A,,Overcast,30,2013-03-10 07:55:00
9:25 AM,33.8,30.2,87,29.59,6.2,NNE,15.0,-,N/A,,Overcast,30,2013-03-10 08:25:00
9:55 AM,33.8,30.2,87,29.59,6.2,NNE,13.8,-,N/A,,Overcast,30,2013-03-10 08:55:00
10:25 AM,33.8,28.4,81,29.59,6.2,NE,18.4,-,N/A,,Overcast,40,2013-03-10 09:25:00
10:55 AM,33.8,28.4,81,29.62,6.2,NE,17.3,-,N/A,,Overcast,40,2013-03-10 09:55:00
11:25 AM,33.8,28.4,81,29.62,6.2,NNE,12.7,-,N/A,,Overcast,30,2013-03-10 10:25:00
11:55 AM,33.8,28.4,81,29.62,6.2,NNE,15.0,-,N/A,,Overcast,30,2013-03-10 10:55:00
12:25 PM,33.8,28.4,81,29.65,6.2,NE,13.8,-,N/A,,Overcast,40,2013-03-10 11:25:00
12:55 PM,33.8,28.4,81,29.65,6.2,NNE,13.8,-,N/A,,Overcast,30,2013-03-10 11:55:00
1:00 PM,34,28,69,29.65,9,NNE,13.4,,,,Partly Cloudy,30,2013-03-10 12:00:00
1:25 PM,33.8,28.4,81,29.65,6.2,NNE,12.7,-,N/A,,Overcast,30,2013-03-10 12:25:00
1:55 PM,33.8,28.4,81,29.65,6.2,NE,16.1,-,N/A,,Overcast,40,2013-03-10 12:55:00
2:25 PM,33.8,26.6,75,29.65,6.2,NE,16.1,-,N/A,,Overcast,40,2013-03-10 13:25:00
2:55 PM,33.8,28.4,81,29.65,6.2,NNE,13.8,-,N/A,,Overcast,30,2013-03-10 13:55:00
3:25 PM,33.8,26.6,75,29.65,6.2,NE,16.1,-,N/A,,Overcast,40,2013-03-10 14:25:00
3:55 PM,33.8,28.4,81,29.65,6.2,NE,13.8,-,N/A,,Overcast,40,2013-03-10 14:55:00
4:00 PM,33,27,70,29.67,9,NE,15.7,,,,Overcast,50,2013-03-10 15:00:00
4:25 PM,33.8,26.6,75,29.65,6.2,NE,16.1,-,N/A,,Overcast,40,2013-03-10 15:25:00
4:55 PM,33.8,26.6,75,29.65,6.2,NE,15.0,-,N/A,,Overcast,40,2013-03-10 15:55:00
5:25 PM,33.8,26.6,75,29.68,6.2,NE,12.7,-,N/A,,Overcast,40,2013-03-10 16:25:00
5:55 PM,33.8,26.6,75,29.68,6.2,NE,12.7,-,N/A,,Overcast,50,2013-03-10 16:55:00
6:25 PM,32.0,26.6,80,29.68,6.2,ENE,15.0,-,N/A,,Overcast,60,2013-03-10 17:25:00
6:55 PM,32.0,26.6,80,29.68,6.2,NE,13.8,-,N/A,,Overcast,50,2013-03-10 17:55:00
7:00 PM,33,25,64,29.72,12,NE,13.4,,,,Partly Cloudy,50,2013-03-10 18:00:00
7:25 PM,32.0,24.8,75,29.71,6.2,NE,12.7,-,N/A,,Overcast,50,2013-03-10 18:25:00
7:55 PM,32.0,26.6,80,29.71,6.2,NE,12.7,-,N/A,,Overcast,50,2013-03-10 18:55:00
8:25 PM,32.0,24.8,75,29.71,6.2,ENE,15.0,-,N/A,,Overcast,60,2013-03-10 19:25:00
8:55 PM,32.0,24.8,75,29.71,6.2,NE,16.1,-,N/A,,Overcast,50,2013-03-10 19:55:00
9:25 PM,32.0,24.8,75,29.71,6.2,NE,16.1,-,N/A,,Overcast,50,2013-03-10 20:25:00
9:55 PM,32.0,24.8,75,29.71,6.2,NE,15.0,-,N/A,,Overcast,50,2013-03-10 20:55:00
10:00 PM,31,24,64,29.73,25,ENE,15.7,,,,Overcast,60,2013-03-10 21:00:00
10:25 PM,32.0,24.8,75,29.71,6.2,NE,12.7,-,N/A,,Overcast,50,2013-03-10 21:25:00
10:55 PM,30.2,23.0,75,29.74,6.2,NE,18.4,-,N/A,,Overcast,50,2013-03-10 21:55:00
11:25 PM,30.2,21.2,69,29.74,6.2,ENE,17.3,-,N/A,,Overcast,60,2013-03-10 22:25:00
11:55 PM,30.2,21.2,69,29.74,6.2,ENE,13.8,-,N/A,,Overcast,60,2013-03-10 22:55:00